Miscellaneous Local Product
Issued by NWS North Platte, NE

Home | Current Version | Previous Version | Text Only | Print | Product List | Glossary On
Versions: 1 2 3 4 5 6 7 8 9 10 11 12 13 14 15 16 17 18 19 20 21 22 23 24 25 26 27 28 29 30 31 32 33 34 35 36 37 38 39 40 41 42 43 44 45 46 47 48 49 50
000
AXUS43 KLBF 280410
MISLBF


WESTERN AND NORTH CENTRAL NEBRASKA HOURLY WEATHER ROUNDUP
NATIONAL WEATHER SERVICE NORTH PLATTE NE
1100 PM CDT THU AUG 27 2015

NOTE: "FAIR" INDICATES FEW OR NO CLOUDS BELOW 12,000 FEET WITH NO
SIGNIFICANT WEATHER AND/OR OBSTRUCTIONS TO VISIBILITY.

NOTE: STATIONS NOT REPORTING VARIABLES SUCH AS SKY/WEATHER OR
PRESSURE ARE PROVIDED BY THE NEBRASKA DEPARTMENT OF
ROADS...RAWS...AND APRS NETWORKS...AND ARE NOT UNDER
NATIONAL WEATHER SERVICE QUALITY CONTROL.

...OBSERVATIONS IN AND NEAR THE EASTERN PANHANDLE OF NEBRASKA...

CITY           SKY/WX    TMP DP  RH WIND       PRES   REMARKS
PINE RIDGE     CLEAR     57  54  89 CALM      30.04R
CHADRON        PTCLDY    58  54  86 CALM      30.04R
ALLIANCE       PTCLDY    57  54  89 NW5       30.07R
SIDNEY         PTCLDY    62  54  74 N7        30.09R
CRESCENT LAKE    N/A     63  56  77 NW6         N/A
BIG SPRINGS      N/A     66  60  81 CALM        N/A
$$

...OBSERVATIONS IN NORTH CENTRAL NEBRASKA...

CITY           SKY/WX    TMP DP  RH WIND       PRES   REMARKS
THEDFORD       MOCLDY    70  67  90 N8        29.96S
AINSWORTH      LGT RAIN  71  70  97 N7        29.94S
O`NEILL        MOCLDY    69  68  96 SE9       29.91R
ORD            CLOUDY    71  68  90 N9        29.85R
BROKEN BOW     PTCLDY    69  66  90 N6        29.88R
SPRINGVIEW       N/A     71  67  89 CALM        N/A
SARGENT          N/A     68  67  97 CALM        N/A
CHAMBERS         N/A     67  65  95 E3G13       N/A
EWING            N/A     68  65  90 E10G24      N/A
$$

...OBSERVATIONS IN SOUTHWEST NEBRASKA AND FAR NORTHEAST COLORADO...

CITY           SKY/WX    TMP DP  RH WIND       PRES   REMARKS
WRAY           FAIR      69  61  75 NW6       30.03R
HOLYOKE        FAIR      70  59  68 N9        30.04R
IMPERIAL       MOCLDY    70  60  70 N9        29.99R
OGALLALA       MOCLDY    69  61  76 N12       30.00R
NORTH PLATTE   PTCLDY    70  65  84 W8        29.93R
MCCOOK         MOCLDY    77  65  66 N15       29.89R
LEXINGTON      CLEAR     71  67  88 NW9       29.86R
PAXTON           N/A     72  63  73 NW3         N/A
BRADY            N/A     69  65  89 S3          N/A
CALLAWAY         N/A     71  69  92 NW9         N/A
$$

...OBSERVATIONS IN CENTRAL LINCOLN COUNTY AREA...

CITY           SKY/WX    TMP DP  RH WIND       PRES   REMARKS
N.P. AIRPORT   PTCLDY    70  65  84 W8        29.93R
N.P. DOWNTOWN    N/A     71  66  84 NW5         N/A
N.P. SOUTHEAST   N/A     72  66  81 N3          N/A
$$

...SOME OBSERVATIONS FROM AROUND THE REGION...

CITY           SKY/WX    TMP DP  RH WIND       PRES   REMARKS
DENVER         MOCLDY    70  54  56 SW12      30.18R
LARAMIE        CLOUDY    61  49  64 NE5       30.29R
CHEYENNE       MOCLDY    62  50  64 W7        30.22R
SCOTTSBLUFF    MOCLDY    66  55  67 CALM      30.07R
RAPID CITY     PTCLDY    63  60  90 SW8       29.99F
PIERRE         CLOUDY    69  68  96 E3        29.91F
WINNER         CLOUDY    71  68  90 NE5       29.93R FOG
SIOUX FALLS    LGT RAIN  67  64  90 SE14G21   29.95F
OMAHA          LGT RAIN  72  66  81 SE15      29.93F
GRAND ISLAND   CLOUDY    75  66  73 S15       29.84R
KANSAS CITY    CLOUDY    71  64  78 SE13      29.99F
WICHITA        CLOUDY    75  65  70 S13       29.93S
HAYS           MOCLDY    79  61  53 S22G28    29.87R
LIBERAL        CLOUDY    79  55  44 SW12      29.97R
GOODLAND       PTCLDY    73  60  63 NW9       30.00R
$$



USA.gov is the U.S. government's official web portal to all federal, state and local government web resources and services.